Location: Oshawa
(43.9000°N, 78.8670°W)
Time: 06:39:24
(UTC-04:00)

Cosmos 839 Rocket - Visible Passes

Search period start: 25 April 2017 00:00
Search period end: 05 May 2017 00:00
Orbit: 969 x 2084 km, 65.9° (Epoch: 23 April)

Date Brightness Start Highest point End Pass type
(mag) Time Alt. Az. Time Alt. Az. Time Alt. Az.
25 Apr 6.1 02:50:25 10° NNW 02:55:36 26° NE 03:01:11 10° E visible
25 Apr 4.1 04:49:48 10° NW 04:56:05 69° WSW 05:03:27 10° SSE visible
25 Apr 6.7 22:01:54 10° WNW 22:06:33 19° NNW 22:10:55 10° NNE visible
26 Apr 6.5 02:08:49 10° NNW 02:13:11 19° NNE 02:17:47 10° ENE visible
26 Apr 4.3 04:07:52 10° NNW 04:14:11 80° ENE 04:21:33 10° SE visible
26 Apr 6.5 21:18:25 10° W 21:24:08 26° NW 21:29:18 10° NNE visible
27 Apr 6.8 01:27:18 10° N 01:30:36 14° NNE 01:34:01 10° ENE visible
27 Apr 4.8 03:26:04 10° NNW 03:32:12 54° NE 03:39:14 10° SE visible
27 Apr 5.0 05:26:29 10° NW 05:31:56 29° WSW 05:38:12 10° SSW visible
27 Apr 6.0 20:35:17 10° WSW 20:41:52 36° NW 20:47:40 10° NNE visible
27 Apr 7.0 22:42:11 10° NW 22:44:08 11° NNW 22:46:03 10° N visible
28 Apr 6.9 00:45:56 10° N 00:47:52 11° NNE 00:49:51 10° NE visible
28 Apr 5.5 02:44:20 10° NNW 02:50:06 37° NE 02:56:32 10° ESE visible
28 Apr 4.5 04:44:08 10° NW 04:50:11 46° WSW 04:57:17 10° S visible
28 Apr 6.8 21:57:58 10° WNW 22:01:24 14° NNW 22:04:41 10° N visible
29 Apr 6.0 02:02:41 10° NNW 02:07:51 26° NE 02:13:28 10° E visible
29 Apr 4.1 04:02:03 10° NW 04:08:21 70° WSW 04:15:48 10° SSE visible
29 Apr 6.6 21:14:09 10° WNW 21:18:48 19° NNW 21:23:10 10° NNE visible
30 Apr 6.4 01:21:05 10° NNW 01:25:26 19° NNE 01:30:02 10° ENE visible
30 Apr 4.2 03:20:08 10° NNW 03:26:28 79° ENE 03:33:53 10° SE visible
30 Apr 5.5 05:21:31 10° WNW 05:25:55 19° WSW 05:30:47 10° SSW visible
01 May 6.7 00:39:34 10° N 00:42:51 14° NNE 00:46:15 10° ENE visible
01 May 4.8 02:38:20 10° NNW 02:44:28 53° NE 02:51:33 10° SE visible
01 May 5.0 04:38:42 10° NW 04:44:14 30° WSW 04:50:37 10° S visible
01 May 6.9 21:54:23 10° NW 21:56:23 11° NNW 21:58:19 10° N visible
01 May 6.8 23:58:13 10° N 00:00:08 11° NNE 00:02:03 10° NE visible
02 May 5.4 01:56:36 10° NNW 02:02:21 36° NE 02:08:49 10° ESE visible
02 May 4.5 03:56:22 10° NW 04:02:28 47° WSW 04:09:39 10° S visible
02 May 6.7 21:10:12 10° WNW 21:13:38 14° NNW 21:16:57 10° N visible
03 May 5.9 01:14:57 10° NNW 01:20:06 26° NE 01:25:44 10° E visible
03 May 4.1 03:14:17 10° NW 03:20:38 72° WSW 03:26:34 17° SSE visible
03 May 5.9 05:18:04 10° W 05:19:47 11° WSW 05:21:35 10° WSW visible
04 May 6.3 00:33:21 10° NNW 00:37:41 19° NNE 00:42:17 10° ENE visible
04 May 4.2 02:32:23 10° NNW 02:38:44 78° ENE 02:43:26 24° SE visible
04 May 5.5 04:33:41 10° WNW 04:38:12 19° WSW 04:39:54 18° SW visible
04 May 6.5 23:51:50 10° N 23:55:06 14° NNE 23:58:29 10° ENE visible
